Time,TemperatureF,DewpointF,PressureIn,WindDirection,WindDirectionDegrees,WindSpeedMPH,WindSpeedGustMPH,Humidity,HourlyPrecipIn,Conditions,Clouds,dailyrainin,SoftwareType,DateUTC
2013-06-04 00:02:00,62.0,58.0,29.91,SSW,212,1.0,4.0,87,0.00,,,0.00,,2013-06-04 05:02:00,
2013-06-04 00:12:00,62.0,58.0,29.91,SSW,212,1.0,4.0,87,0.00,,,0.00,,2013-06-04 05:12:00,
2013-06-04 00:22:00,62.0,58.0,29.91,SSW,212,6.0,7.0,87,0.00,,,0.00,,2013-06-04 05:22:00,
2013-06-04 00:32:00,62.0,58.0,29.92,SSW,209,0.0,8.0,87,0.00,,,0.00,,2013-06-04 05:32:00,
2013-06-04 00:42:00,62.0,58.0,29.92,SSW,209,0.0,8.0,87,0.00,,,0.00,,2013-06-04 05:42:00,
2013-06-04 00:52:00,61.0,57.0,29.92,SSW,209,0.0,7.0,88,0.00,,,0.00,,2013-06-04 05:52:00,
2013-06-04 01:02:00,61.0,58.0,29.92,SSW,209,1.0,6.0,89,0.00,,,0.00,,2013-06-04 06:02:00,
2013-06-04 01:12:00,61.0,58.0,29.92,SSW,209,1.0,6.0,89,0.00,,,0.00,,2013-06-04 06:12:00,
2013-06-04 01:22:00,61.0,58.0,29.92,SSW,209,6.0,9.0,89,0.00,,,0.00,,2013-06-04 06:22:00,
2013-06-04 01:32:00,61.0,58.0,29.92,SSW,209,6.0,9.0,89,0.00,,,0.00,,2013-06-04 06:32:00,
2013-06-04 01:42:00,61.0,58.0,29.92,SSW,209,6.0,9.0,89,0.00,,,0.00,,2013-06-04 06:42:00,
2013-06-04 01:52:00,62.0,58.0,29.89,SSW,200,8.0,13.0,86,0.00,,,0.00,,2013-06-04 06:52:00,
2013-06-04 02:02:00,63.0,59.0,29.89,SSW,202,9.0,14.0,86,0.00,,,0.00,,2013-06-04 07:02:00,
2013-06-04 02:12:00,63.0,59.0,29.89,SSW,202,9.0,14.0,86,0.00,,,0.00,,2013-06-04 07:12:00,
2013-06-04 02:22:00,63.0,59.0,29.89,SSW,211,10.0,15.0,86,0.00,,,0.00,,2013-06-04 07:22:00,
2013-06-04 02:32:00,63.0,58.0,29.89,SW,218,7.0,15.0,85,0.00,,,0.00,,2013-06-04 07:32:00,
2013-06-04 02:42:00,63.0,58.0,29.89,SW,218,7.0,15.0,85,0.00,,,0.00,,2013-06-04 07:42:00,
2013-06-04 02:52:00,63.0,59.0,29.90,SSW,211,7.0,12.0,86,0.00,,,0.00,,2013-06-04 07:52:00,
2013-06-04 03:02:00,63.0,59.0,29.90,SW,218,7.0,13.0,86,0.00,,,0.00,,2013-06-04 08:02:00,
2013-06-04 03:12:00,63.0,59.0,29.90,SW,218,7.0,13.0,86,0.00,,,0.00,,2013-06-04 08:12:00,
2013-06-04 03:22:00,63.0,59.0,29.90,SW,218,7.0,13.0,86,0.00,,,0.00,,2013-06-04 08:22:00,
2013-06-04 03:32:00,62.0,58.0,29.89,SSW,207,6.0,11.0,87,0.00,,,0.00,,2013-06-04 08:32:00,
2013-06-04 03:42:00,62.0,58.0,29.89,SSW,207,6.0,11.0,87,0.00,,,0.00,,2013-06-04 08:42:00,
2013-06-04 03:52:00,62.0,58.0,29.88,SSW,205,7.0,11.0,88,0.00,,,0.00,,2013-06-04 08:52:00,
2013-06-04 04:02:00,62.0,58.0,29.87,SSW,203,9.0,16.0,88,0.00,,,0.00,,2013-06-04 09:02:00,
2013-06-04 04:12:00,62.0,58.0,29.87,SSW,203,9.0,16.0,88,0.00,,,0.00,,2013-06-04 09:12:00,
2013-06-04 04:22:00,62.0,58.0,29.87,SSW,203,12.0,18.0,88,0.00,,,0.00,,2013-06-04 09:22:00,
2013-06-04 04:33:00,62.0,58.0,29.88,SSW,208,9.0,18.0,87,0.00,,,0.00,,2013-06-04 09:33:00,
2013-06-04 04:43:00,62.0,58.0,29.88,SSW,208,9.0,18.0,87,0.00,,,0.00,,2013-06-04 09:43:00,
2013-06-04 04:53:00,62.0,58.0,29.88,SW,218,8.0,13.0,88,0.00,,,0.00,,2013-06-04 09:53:00,
2013-06-04 05:02:00,62.0,58.0,29.89,SW,218,6.0,13.0,88,0.00,,,0.00,,2013-06-04 10:02:00,
2013-06-04 05:12:00,62.0,58.0,29.89,SW,218,6.0,13.0,88,0.00,,,0.00,,2013-06-04 10:12:00,
2013-06-04 05:22:00,61.0,57.0,29.90,SW,218,6.0,13.0,88,0.00,,,0.00,,2013-06-04 10:22:00,
2013-06-04 05:32:00,61.0,58.0,29.91,SW,218,3.0,8.0,90,0.00,,,0.00,,2013-06-04 10:32:00,
2013-06-04 05:42:00,61.0,58.0,29.91,SW,218,3.0,8.0,90,0.00,,,0.00,,2013-06-04 10:42:00,
2013-06-04 05:53:00,60.0,57.0,29.91,SW,218,3.0,8.0,90,0.00,,,0.00,,2013-06-04 10:53:00,
2013-06-04 06:02:00,60.0,57.0,29.92,SW,218,4.0,7.0,91,0.00,,,0.00,,2013-06-04 11:02:00,
2013-06-04 06:12:00,60.0,57.0,29.92,SW,218,4.0,7.0,91,0.00,,,0.00,,2013-06-04 11:12:00,
2013-06-04 06:22:00,61.0,58.0,29.92,SW,218,5.0,9.0,91,0.00,,,0.00,,2013-06-04 11:22:00,
2013-06-04 06:32:00,61.0,58.0,29.92,SW,218,5.0,9.0,91,0.00,,,0.00,,2013-06-04 11:32:00,
2013-06-04 06:42:00,61.0,58.0,29.92,SW,218,5.0,9.0,91,0.00,,,0.00,,2013-06-04 11:42:00,
2013-06-04 06:52:00,61.0,58.0,29.91,SSW,213,4.0,9.0,91,0.00,,,0.00,,2013-06-04 11:52:00,
2013-06-04 07:02:00,61.0,58.0,29.90,SSW,211,7.0,9.0,91,0.00,,,0.00,,2013-06-04 12:02:00,
2013-06-04 07:12:00,61.0,58.0,29.90,SSW,211,7.0,9.0,91,0.00,,,0.00,,2013-06-04 12:12:00,
2013-06-04 07:22:00,61.0,58.0,29.90,SSW,211,7.0,9.0,91,0.00,,,0.00,,2013-06-04 12:22:00,
2013-06-04 07:32:00,62.0,59.0,29.91,SSW,211,5.0,11.0,90,0.00,,,0.00,,2013-06-04 12:32:00,
2013-06-04 07:42:00,62.0,59.0,29.91,SSW,211,5.0,11.0,90,0.00,,,0.00,,2013-06-04 12:42:00,
2013-06-04 07:53:00,62.0,59.0,29.92,SSW,211,2.0,8.0,90,0.00,,,0.00,,2013-06-04 12:53:00,
2013-06-04 08:02:00,63.0,59.0,29.92,SW,228,7.0,14.0,88,0.00,,,0.00,,2013-06-04 13:02:00,
2013-06-04 08:12:00,63.0,59.0,29.92,SW,228,7.0,14.0,88,0.00,,,0.00,,2013-06-04 13:12:00,
2013-06-04 08:22:00,63.0,59.0,29.93,SW,234,7.0,13.0,87,0.00,,,0.00,,2013-06-04 13:22:00,
2013-06-04 08:32:00,64.0,60.0,29.96,SW,228,7.0,13.0,87,0.00,,,0.00,,2013-06-04 13:32:00,
2013-06-04 08:42:00,64.0,60.0,29.96,SW,228,7.0,13.0,87,0.00,,,0.00,,2013-06-04 13:42:00,
2013-06-04 08:52:00,64.0,60.0,29.95,SW,218,9.0,15.0,86,0.00,,,0.00,,2013-06-04 13:52:00,
2013-06-04 09:02:00,64.0,60.0,29.95,SW,218,9.0,15.0,86,0.00,,,0.00,,2013-06-04 14:02:00,
2013-06-04 09:12:00,64.0,60.0,29.95,SW,218,9.0,15.0,86,0.00,,,0.00,,2013-06-04 14:12:00,
2013-06-04 09:22:00,65.0,60.0,29.96,SSW,211,9.0,20.0,85,0.00,,,0.00,,2013-06-04 14:22:00,
2013-06-04 09:32:00,66.0,61.0,29.96,SSW,203,13.0,18.0,83,0.00,,,0.00,,2013-06-04 14:32:00,
2013-06-04 09:43:00,66.0,61.0,29.96,SSW,203,13.0,18.0,83,0.00,,,0.00,,2013-06-04 14:43:00,
2013-06-04 09:52:00,66.0,60.0,29.96,SSW,209,14.0,21.0,82,0.00,,,0.00,,2013-06-04 14:52:00,
2013-06-04 10:02:00,67.0,61.0,29.96,SW,218,8.0,18.0,82,0.00,,,0.00,,2013-06-04 15:02:00,
2013-06-04 10:12:00,67.0,61.0,29.96,SW,218,8.0,18.0,82,0.00,,,0.00,,2013-06-04 15:12:00,
2013-06-04 10:22:00,67.0,61.0,29.96,SSW,209,9.0,19.0,82,0.00,,,0.00,,2013-06-04 15:22:00,
2013-06-04 10:33:00,67.0,61.0,29.96,SSW,209,9.0,19.0,82,0.00,,,0.00,,2013-06-04 15:33:00,
2013-06-04 10:42:00,67.0,61.0,29.96,SSW,209,9.0,19.0,82,0.00,,,0.00,,2013-06-04 15:42:00,
2013-06-04 10:53:00,67.0,61.0,29.96,SSW,209,9.0,19.0,82,0.00,,,0.00,,2013-06-04 15:53:00,
2013-06-04 11:03:00,69.0,62.0,29.96,SW,223,12.0,19.0,79,0.00,,,0.00,,2013-06-04 16:03:00,
2013-06-04 11:12:00,69.0,62.0,29.96,SW,223,12.0,19.0,79,0.00,,,0.00,,2013-06-04 16:12:00,
2013-06-04 11:22:00,69.0,62.0,29.96,SW,223,12.0,19.0,79,0.00,,,0.00,,2013-06-04 16:22:00,
2013-06-04 11:33:00,69.0,63.0,29.97,SW,223,7.0,14.0,80,0.00,,,0.00,,2013-06-04 16:33:00,
2013-06-04 11:42:00,69.0,63.0,29.97,SW,223,7.0,14.0,80,0.00,,,0.00,,2013-06-04 16:42:00,
2013-06-04 11:53:00,69.0,63.0,29.98,SW,218,8.0,12.0,81,0.00,,,0.00,,2013-06-04 16:53:00,
2013-06-04 12:02:00,69.0,63.0,29.98,SW,218,8.0,12.0,81,0.00,,,0.00,,2013-06-04 17:02:00,
2013-06-04 12:12:00,69.0,63.0,29.98,SW,218,8.0,12.0,81,0.00,,,0.00,,2013-06-04 17:12:00,
2013-06-04 12:23:00,69.0,63.0,29.98,SW,218,8.0,11.0,80,0.00,,,0.00,,2013-06-04 17:23:00,
2013-06-04 12:32:00,69.0,63.0,29.98,SSE,167,3.0,10.0,81,0.00,,,0.00,,2013-06-04 17:32:00,
2013-06-04 12:42:00,69.0,63.0,29.98,SSE,167,3.0,10.0,81,0.00,,,0.00,,2013-06-04 17:42:00,
2013-06-04 12:52:00,69.0,63.0,29.97,SSW,209,1.0,8.0,82,0.00,,,0.00,,2013-06-04 17:52:00,
2013-06-04 13:02:00,68.0,64.0,29.96,SSW,209,0.0,5.0,88,0.00,,,0.00,,2013-06-04 18:02:00,
2013-06-04 13:12:00,68.0,64.0,29.96,SSW,209,0.0,5.0,88,0.00,,,0.00,,2013-06-04 18:12:00,
2013-06-04 13:22:00,69.0,65.0,29.96,SSW,201,5.0,8.0,88,0.00,,,0.00,,2013-06-04 18:22:00,
2013-06-04 13:32:00,68.0,64.0,29.96,SSW,201,5.0,8.0,86,0.00,,,0.00,,2013-06-04 18:32:00,
2013-06-04 13:42:00,68.0,64.0,29.96,SSW,201,5.0,8.0,86,0.00,,,0.00,,2013-06-04 18:42:00,
2013-06-04 13:53:00,67.0,64.0,29.95,SSW,199,0.0,7.0,89,0.00,,,0.00,,2013-06-04 18:53:00,
2013-06-04 14:02:00,67.0,65.0,29.95,South,181,0.0,8.0,92,0.00,,,0.00,,2013-06-04 19:02:00,
2013-06-04 14:12:00,67.0,65.0,29.95,South,181,0.0,8.0,92,0.00,,,0.00,,2013-06-04 19:12:00,
2013-06-04 14:22:00,67.0,65.0,29.95,South,181,0.0,8.0,92,0.00,,,0.00,,2013-06-04 19:22:00,
2013-06-04 14:32:00,67.0,65.0,29.95,South,181,0.0,8.0,92,0.00,,,0.00,,2013-06-04 19:32:00,
2013-06-04 14:42:00,67.0,65.0,29.95,South,181,0.0,8.0,92,0.00,,,0.00,,2013-06-04 19:42:00,
2013-06-04 14:52:00,68.0,65.0,29.93,SSE,156,6.0,9.0,91,0.00,,,0.00,,2013-06-04 19:52:00,
2013-06-04 15:03:00,67.0,64.0,29.93,SSE,156,0.0,0.0,90,0.00,,,0.00,,2013-06-04 20:03:00,
2013-06-04 15:12:00,67.0,64.0,29.93,SSE,156,0.0,0.0,90,0.00,,,0.00,,2013-06-04 20:12:00,
2013-06-04 15:22:00,67.0,64.0,29.91,SSE,153,8.0,11.0,91,0.00,,,0.00,,2013-06-04 20:22:00,
2013-06-04 15:32:00,67.0,65.0,29.91,SSE,149,2.0,9.0,92,0.00,,,0.00,,2013-06-04 20:32:00,
2013-06-04 15:42:00,67.0,65.0,29.91,SSE,149,2.0,9.0,92,0.00,,,0.00,,2013-06-04 20:42:00,
2013-06-04 15:53:00,67.0,65.0,29.90,SSE,149,0.0,7.0,92,0.00,,,0.00,,2013-06-04 20:53:00,
2013-06-04 16:02:00,67.0,65.0,29.90,SSE,149,0.0,7.0,92,0.00,,,0.00,,2013-06-04 21:02:00,
2013-06-04 16:12:00,67.0,65.0,29.90,SSE,149,0.0,7.0,92,0.00,,,0.00,,2013-06-04 21:12:00,
2013-06-04 16:22:00,68.0,66.0,29.89,SSE,149,2.0,8.0,92,0.00,,,0.00,,2013-06-04 21:22:00,
2013-06-04 16:33:00,69.0,67.0,29.90,SSE,149,0.0,0.0,93,0.00,,,0.00,,2013-06-04 21:33:00,
2013-06-04 16:42:00,69.0,67.0,29.90,SSE,149,0.0,0.0,93,0.00,,,0.00,,2013-06-04 21:42:00,
2013-06-04 16:53:00,69.0,67.0,29.90,SSE,149,0.0,1.0,93,0.00,,,0.00,,2013-06-04 21:53:00,
2013-06-04 17:02:00,70.0,68.0,29.90,SSE,149,0.0,0.0,93,0.00,,,0.00,,2013-06-04 22:02:00,
2013-06-04 17:12:00,70.0,68.0,29.90,SSE,149,0.0,0.0,93,0.00,,,0.00,,2013-06-04 22:12:00,
2013-06-04 17:22:00,70.0,68.0,29.90,SSE,149,0.0,0.0,93,0.00,,,0.00,,2013-06-04 22:22:00,
2013-06-04 17:32:00,71.0,68.0,29.90,SSE,149,0.0,0.0,91,0.00,,,0.00,,2013-06-04 22:32:00,
2013-06-04 17:42:00,71.0,68.0,29.90,SSE,149,0.0,0.0,91,0.00,,,0.00,,2013-06-04 22:42:00,
2013-06-04 17:52:00,71.0,68.0,29.90,SSE,149,0.0,0.0,89,0.00,,,0.00,,2013-06-04 22:52:00,
2013-06-04 18:02:00,71.0,68.0,29.90,SSE,149,0.0,0.0,90,0.00,,,0.00,,2013-06-04 23:02:00,
2013-06-04 18:12:00,71.0,68.0,29.90,SSE,149,0.0,0.0,90,0.00,,,0.00,,2013-06-04 23:12:00,
2013-06-04 18:22:00,72.0,69.0,29.90,SSE,149,0.0,0.0,89,0.00,,,0.00,,2013-06-04 23:22:00,
2013-06-04 18:32:00,73.0,68.0,29.91,SSE,149,5.0,7.0,84,0.00,,,0.00,,2013-06-04 23:32:00,
2013-06-04 18:42:00,73.0,68.0,29.91,SSE,149,5.0,7.0,84,0.00,,,0.00,,2013-06-04 23:42:00,
2013-06-04 18:52:00,74.0,67.0,29.90,South,185,8.0,14.0,79,0.00,,,0.00,,2013-06-04 23:52:00,
2013-06-04 19:02:00,74.0,67.0,29.90,South,185,8.0,14.0,79,0.00,,,0.00,,2013-06-05 00:02:00,
2013-06-04 19:12:00,74.0,67.0,29.90,South,185,8.0,14.0,79,0.00,,,0.00,,2013-06-05 00:12:00,
2013-06-04 19:22:00,74.0,67.0,29.91,South,181,5.0,10.0,78,0.00,,,0.00,,2013-06-05 00:22:00,
2013-06-04 19:32:00,73.0,66.0,29.91,South,186,4.0,8.0,80,0.00,,,0.00,,2013-06-05 00:32:00,
2013-06-04 19:42:00,73.0,66.0,29.91,South,186,4.0,8.0,80,0.00,,,0.00,,2013-06-05 00:42:00,
2013-06-04 19:52:00,73.0,66.0,29.91,SSW,196,3.0,9.0,80,0.00,,,0.00,,2013-06-05 00:52:00,
2013-06-04 20:02:00,72.0,66.0,29.91,SSW,192,6.0,8.0,82,0.00,,,0.00,,2013-06-05 01:02:00,
2013-06-04 20:12:00,72.0,66.0,29.91,SSW,192,6.0,8.0,82,0.00,,,0.00,,2013-06-05 01:12:00,
2013-06-04 20:22:00,71.0,66.0,29.91,South,188,0.0,0.0,83,0.00,,,0.00,,2013-06-05 01:22:00,
2013-06-04 20:32:00,69.0,64.0,29.91,South,188,0.0,0.0,83,0.00,,,0.00,,2013-06-05 01:32:00,
2013-06-04 20:42:00,69.0,64.0,29.91,South,188,0.0,0.0,83,0.00,,,0.00,,2013-06-05 01:42:00,
2013-06-04 20:52:00,68.0,63.0,29.91,South,188,0.0,0.0,85,0.00,,,0.00,,2013-06-05 01:52:00,
2013-06-04 21:02:00,66.0,62.0,29.92,South,188,0.0,0.0,87,0.00,,,0.00,,2013-06-05 02:02:00,
2013-06-04 21:12:00,66.0,62.0,29.92,South,188,0.0,0.0,87,0.00,,,0.00,,2013-06-05 02:12:00,
2013-06-04 21:22:00,67.0,63.0,29.92,South,188,0.0,0.0,86,0.00,,,0.00,,2013-06-05 02:22:00,
2013-06-04 21:32:00,65.0,61.0,29.93,South,188,0.0,0.0,86,0.00,,,0.00,,2013-06-05 02:32:00,
2013-06-04 21:42:00,62.0,59.0,29.94,South,188,0.0,0.0,90,0.00,,,0.00,,2013-06-05 02:42:00,
2013-06-04 21:52:00,62.0,59.0,29.94,South,188,0.0,0.0,90,0.00,,,0.00,,2013-06-05 02:52:00,
2013-06-04 22:02:00,62.0,59.0,29.94,South,188,0.0,0.0,90,0.00,,,0.00,,2013-06-05 03:02:00,
2013-06-04 22:12:00,62.0,59.0,29.94,South,188,0.0,0.0,90,0.00,,,0.00,,2013-06-05 03:12:00,
2013-06-04 22:22:00,62.0,60.0,29.94,South,188,0.0,0.0,94,0.00,,,0.00,,2013-06-05 03:22:00,
2013-06-04 22:33:00,63.0,61.0,29.94,South,188,0.0,0.0,93,0.00,,,0.00,,2013-06-05 03:33:00,
2013-06-04 22:43:00,63.0,61.0,29.94,South,188,0.0,0.0,93,0.00,,,0.00,,2013-06-05 03:43:00,
2013-06-04 22:53:00,62.0,60.0,29.95,South,188,0.0,0.0,94,0.00,,,0.00,,2013-06-05 03:53:00,
2013-06-04 23:02:00,62.0,60.0,29.94,South,188,0.0,0.0,94,0.00,,,0.00,,2013-06-05 04:02:00,
2013-06-04 23:13:00,62.0,60.0,29.94,South,188,0.0,0.0,94,0.00,,,0.00,,2013-06-05 04:13:00,
2013-06-04 23:22:00,62.0,60.0,29.94,South,188,0.0,0.0,94,0.00,,,0.00,,2013-06-05 04:22:00,
2013-06-04 23:33:00,62.0,60.0,29.94,South,188,0.0,0.0,94,0.00,,,0.00,,2013-06-05 04:33:00,
2013-06-04 23:42:00,62.0,60.0,29.94,South,188,0.0,0.0,94,0.00,,,0.00,,2013-06-05 04:42:00,
2013-06-04 23:53:00,62.0,60.0,29.94,South,188,0.0,0.0,94,0.00,,,0.00,,2013-06-05 04:53:00,